Regional Weather Roundup
Issued by NWS

Home | Current Version | Previous Version | Text Only | Print | Product List | Glossary On
Versions: 1 2 3 4 5 6 7 8 9 10 11 12 13 14 15 16 17 18 19 20 21 22 23 24 25 26 27 28 29 30 31 32 33 34 35 36 37 38 39 40 41 42 43 44 45 46 47 48 49 50
000
ASUS43 KMKX 240921
RWRWI

WISCONSIN REGIONAL WEATHER ROUNDUP
NATIONAL WEATHER SERVICE MILWAUKEE/SULLIVAN WI
400 AM CDT MON APR 24 2017

NOTE: "FAIR" INDICATES FEW OR NO CLOUDS BELOW 12,000 FEET WITH NO
SIGNIFICANT WEATHER AND/OR OBSTRUCTIONS TO VISIBILITY.

WIZ001-002-006>008-014>016-023>028-241000-
NORTHWEST WISCONSIN

CITY           SKY/WX    TMP DP  RH WIND       PRES   REMARKS
SUPERIOR ARPT  CLOUDY    35  29  78 E20G31    29.98F WCI  24
ASHLAND        CLOUDY    34  27  75 NE10      30.01F WCI  26
HAYWARD        CLOUDY    37  31  78 NE6       29.94S WCI  32
SIREN          CLOUDY    37  32  81 NE6       29.89F WCI  32
CUMBERLAND     PTCLDY    39  34  81 SE9       29.90F WCI  33
RICE LAKE      PTCLDY    41  36  81 SE16      29.92F
CHETEK         PTCLDY    40  36  87 SE12G21   29.92F WCI  32
LADYSMITH      CLOUDY    38  32  79 E6        29.97S WCI  33
EAU CLAIRE     PTCLDY    42  37  82 SE8       29.93S
MENOMONIE      PTCLDY    44  39  82 E9        29.91S
NEW RICHMOND   MOCLDY    46  40  80 SE9G16    29.87S
OSCEOLA        PTCLDY    46  41  82 E7        29.88F
$$

WIZ003>005-009-010-017-018-241000-
NORTH CENTRAL WISCONSIN

CITY           SKY/WX    TMP DP  RH WIND       PRES   REMARKS
MANITOWISH WTR PTCLDY    31  20  64 E6        29.98F WCI  25
ARBOR VITAE    CLOUDY    33  23  69 SE7       29.98F WCI  26
WOODRUFF       CLOUDY    33  23  69 SE7       29.98F WCI  26
RHINELANDER    PTCLDY    34  22  61 SE9       30.00S WCI  27
EAGLE RIVER    CLOUDY    30  15  53 E9        30.00F WCI  22
LAND O LAKES   CLOUDY    30  14  51 SE7       30.02F WCI  23
PHILLIPS       PTCLDY    34  27  75 SE8       29.96S WCI  28
TOMAHAWK       PTCLDY    33  24  69 SE3       30.00S
MEDFORD        CLOUDY    33  28  83 SE6       29.97S WCI  27
MERRILL        CLOUDY    33  25  72 SE7       30.00F WCI  27
$$

WIZ029-030-035-036-043>047-241000-
CENTRAL WISCONSIN

CITY           SKY/WX    TMP DP  RH WIND       PRES   REMARKS
WAUSAU         CLOUDY    33  26  75 SE10      30.00F WCI  25
MOSINEE        CLOUDY    32  30  93 E7        30.01F WCI  26
MARSHFIELD     CLOUDY    35  28  75 E10       29.98F WCI  27
STEVENS POINT  CLOUDY    32  28  83 E9        30.02F WCI  25
WAUPACA        CLOUDY    37  29  73 E3        30.04F
WAUTOMA        PTCLDY    36  30  79 E7        30.04F WCI  30
WISC RAPIDS    CLEAR     35  28  75 E8        30.01F WCI  29
CAMP DOUGLAS   PTCLDY    37  33  86 E7        29.99F WCI  31
$$

WIZ011>013-019>022-031-037>040-048>050-241000-
NORTHEAST WISCONSIN

CITY           SKY/WX    TMP DP  RH WIND       PRES   REMARKS
ANTIGO         CLOUDY    30  23  75 SE12G17   30.01F WCI  20
SHAWANO        CLOUDY    36  29  77 E7        30.06F WCI  30
OCONTO         PTCLDY    35  28  78 E7        30.06F WCI  29
STURGEON BAY   CLEAR     35  30  82 E12       30.06F WCI  27
GREEN BAY      PTCLDY    37  30  75 E9        30.05F WCI  30
MANITOWOC      CLEAR     37  31  78 NE5       30.06S WCI  33
APPLETON       CLOUDY    36  27  69 E9        30.02F WCI  29
CLINTONVILLE   CLOUDY    34  28  80 E6        30.05F WCI  29
OSHKOSH        CLOUDY    39  31  72 E7        30.03F WCI  34
$$

WIZ032>034-041-042-053>061-241000-
SOUTHWEST WISCONSIN

CITY           SKY/WX    TMP DP  RH WIND       PRES   REMARKS
LA CROSSE      CLEAR     50  41  71 E13       29.93S
SPARTA         PTCLDY    40  37  89 E5        29.98S
VIROQUA        CLEAR     43  40  88 E10       29.95S
BOSCOBEL       CLEAR     47  42  83 VRB3      29.97S
PRAIRIE DU CHI CLEAR     46  34  61 E3        29.94F
PLATTEVILLE    CLEAR     49  35  60 E9        29.97S
$$

WIZ056-057-062-063-064-067-068-241000-
SOUTH CENTRAL WISCONSIN

CITY           SKY/WX    TMP DP  RH WIND       PRES   REMARKS
REEDSBURG      PTCLDY    37  37  97 E5        30.00R WCI  34
BARABOO/DELLS  PTCLDY    36  33  89 E8        30.00S WCI  30
LONE ROCK      PTCLDY    40  36  86 E7        29.99R
MINERAL POINT  CLEAR     46  36  66 SE6       29.97S
MADISON        CLEAR     37  33  85 E5        30.01S WCI  33
MIDDLETON      CLEAR     39  37  91 NE3       30.01S
WATERTOWN      CLEAR     35  35 100 CALM      30.01S
MONROE         CLEAR     41  37  87 E3        29.99S
JANESVILLE     CLEAR     36  36 100 NE3       30.00S
$$

WIZ051-052-058>065-066-070>072-241000-
SOUTHEAST WISCONSIN

CITY           SKY/WX    TMP DP  RH WIND       PRES   REMARKS
MILWAUKEE      PTCLDY    40  35  83 NE7       30.03S
WAUKESHA       CLEAR     34  32  93 E5        30.03S WCI  30
MILWAUKEE/TIMM CLEAR     36  32  87 CALM      30.04S
RACINE         CLEAR     39  35  86 NE8       30.05R WCI  33
KENOSHA        CLEAR     35  33  92 CALM      30.03R
FOND DU LAC    CLOUDY    37  29  72 E5        30.03F WCI  33
SHEBOYGAN      CLEAR     36  31  82 NE8       30.04S WCI  30
WEST BEND      CLEAR     34  32  93 CALM      30.03S
JUNEAU         PTCLDY    36  32  87 CALM      30.03S
$$

LSZ147-162-241000-
LAKE SUPERIOR

STATION/POSITION TIME  TEMP    WIND        PRES    WAVE
                       AIR SEA DIR/SP/G            HT/PER
                 (UTC) (F)     (DEG/KT/KT) (MB)    (FT/S)
DEVILS ISLAND    0900   34      70/ 24/ 26 1018.0F
SAXON HARBOR     0830   35      80/  4/  8 1016.6F
$$

LMZ867-665-643>646-241000-
LAKE MICHIGAN

STATION/POSITION TIME  TEMP    WIND        PRES    WAVE
                       AIR SEA DIR/SP/G            HT/PER
                 (UTC) (F)     (DEG/KT/KT) (MB)    (FT/S)
CHAMBERS ISLAND  0840   35      40/  7/ 12 1017.9F
N MID LAKE BUOY  0850   35 37   80/ 14/ 16 1019.6F   3/ 4
NORTHPORT PIER   0840   36      80/ 11/ 15 1018.6F
KEWAUNEE LAKESHO 0854   38      60/ 10/ 13 1017.4F
SHEBOYGAN LAKESH 0900   39      10/ 14/ 15 1017.9R
PORT WASHINGTON  0830   39     340/  4/  8 1017.9F
MILWAUKEE LAKESH 0900   40      10/ 10/ 12   N/A
S MID LAKE BUOY  0850   40 40  350/  2/  4 1017.1F   3/ 7
KENOSHA   LAKESH 0900   41      30/ 10/ 12 1016.9
$$

TC  - TEMPERATURE IN CELSIUS
VSB - VISIBILITY IN STATUTE MILES
WCI - WIND CHILL INDEX
HX  - HEAT INDEX




USA.gov is the U.S. government's official web portal to all federal, state and local government web resources and services.